Notices

What's New in latest Release from April 7th, 2021:

- Updated Glossary, including Speed of Maximum Gust, and Total Hourly Precipitation

- Updated national and regional climate services offices contacts and prices information

- Addition of station inventory lists for 1981-2010, 1971-2000, and 1961-1990 Normals.

If you haven't already, please take our survey and provide feedback about our website: https://eccc.sondage-survey.ca/f/LanguageSelection.aspx?s=442ca660-fcf1-47c0-95a9-59707d6fd709

Hourly Data Report for June 07, 2021

OTTAWA INTL A
ONTARIO
Current Station Operator: NAVCAN

45°19'00.000" N
75°40'00.000" W
114.90 m
6106001
71628
YOW

Download Data

Hourly Data (June 2021)
Hourly Data Report for June 7, 2021
TIME
LST
Temp Definition
°C
Dew Point Definition
°C
Rel Hum Definition
%
Precip. Amount Definition
mm

Wind Dir Definition
10's deg

Wind Spd Definition
km/h
Visibility Definition
km
Stn Press Definition
kPa
Hmdx Definition


Wind Chill Definition


Weather Definition


00:00 24.3 15.4 57   22 18 24.1 99.99 29   LegendNANA
01:00 23.2 15.2 60   25 5 24.1 100.00 27   Clear
02:00 21.7 15.0 65   27 5 24.1 100.02 26   LegendNANA
03:00 20.2 15.1 72   19 8 24.1 100.01     LegendNANA
04:00 19.5 14.8 74   21 8 24.1 100.05     Mainly Clear
05:00 19.1 14.8 76   21 8 24.1 100.08     LegendNANA
06:00 21.5 15.3 67   22 11 24.1 100.12 26   LegendNANA
07:00 23.8 15.6 59   23 16 24.1 100.15 28   Mainly Clear
08:00 25.6 16.1 55   24 17 24.1 100.14 30   LegendNANA
09:00 28.0 16.9 51   23 13 24.1 100.12 33   LegendNANA
10:00 29.7 17.1 46   23 16 24.1 100.09 35   Mainly Clear
11:00 30.9 18.1 46   22 19 24.1 100.08 37   LegendNANA
12:00 32.5 17.3 40   22 27 24.1 100.03 38   LegendNANA
13:00 32.5 18.3 42   19 23 24.1 99.96 39   Mostly Cloudy
14:00 32.9 19.1 44   20 30 24.1 99.93 40   LegendNANA
15:00 31.6 18.6 45   21 27 24.1 99.90 38   LegendNANA
16:00 30.9 19.7 50   22 28 24.1 99.89 38   Mostly Cloudy
17:00 29.5 19.6 55   24 27 24.1 99.89 37   LegendNANA
18:00 29.4 20.1 57   21 25 24.1 99.86 37   LegendNANA
19:00 28.1 19.6 59   22 23 24.1 99.87 35   Mostly Cloudy
20:00 27.3 19.5 62   22 22 24.1 99.90 34   LegendNANA
21:00 26.4 19.5 65   21 12 24.1 99.96 34   LegendNANA
22:00 25.5 19.4 69   22 16 24.1 99.96 33   Mostly Cloudy
23:00 24.1 19.3 74   22 13 24.1 99.99 31   LegendNANA

Notes on Data Quality.

Legend

  • E = Estimated
  • M = Missing
  • NA = Not Available*
  • [empty] = Indicates an unobserved value
Date modified: